This is the latest recevied weather packets stored in our database for station/object KJ5IIV. If no packets are shown the sender has not sent any weather packets the latest 10 day(s).
| Time | Temp. | Humidity | Pressure | Rain* | Wind** | Luminosity | Snow |
|---|---|---|---|---|---|---|---|
| 1777562085 | 16.67° C | 84% | 1014.4 hPa | 0 mm | - | 281 W/m² | - |
| 1777561782 | 16.67° C | 85% | 1014.4 hPa | 0 mm | - | 208 W/m² | - |
| 1777561477 | 16.67° C | 86% | 1014.3 hPa | 0 mm | - | 215 W/m² | - |
| 1777561173 | 16.67° C | 86% | 1014.3 hPa | 0 mm | - | 198 W/m² | - |
| 1777560868 | 16.67° C | 87% | 1014.2 hPa | 0 mm | - | 206 W/m² | - |
| 1777560566 | 16.67° C | 88% | 1014.1 hPa | 0 mm | - | 222 W/m² | - |
| 1777560264 | 16.67° C | 89% | 1013.8 hPa | 0 mm | - | 240 W/m² | - |
| 1777559961 | 16.67° C | 88% | 1014 hPa | 0 mm | - | 191 W/m² | - |
| 1777559661 | 16.11° C | 89% | 1013.9 hPa | 0 mm | - | 167 W/m² | - |
| 1777559359 | 16.11° C | 89% | 1014.2 hPa | 0 mm | - | 157 W/m² | - |
| 1777559056 | 16.11° C | 90% | 1014 hPa | 0 mm | - | 157 W/m² | - |
| 1777558750 | 16.11° C | 89% | 1014.2 hPa | 0 mm | - | 136 W/m² | - |
| 1777558446 | 16.11° C | 90% | 1014.3 hPa | 0 mm | - | 203 W/m² | - |
| 1777558143 | 16.11° C | 91% | 1014.2 hPa | 0 mm | - | 175 W/m² | - |
| 1777557839 | 16.11° C | 92% | 1014.2 hPa | 0 mm | - | 133 W/m² | - |
| 1777557536 | 16.11° C | 93% | 1014.4 hPa | 0 mm | - | 95 W/m² | - |
| 1777557233 | 16.11° C | 93% | 1014.4 hPa | 0 mm | - | 60 W/m² | - |
| 1777556929 | 16.11° C | 93% | 1014.2 hPa | 0 mm | - | 74 W/m² | - |
| 1777556624 | 15.56° C | 93% | 1014.3 hPa | 0 mm | - | 88 W/m² | - |
| 1777556324 | 15.56° C | 93% | 1014.1 hPa | 0 mm | - | 76 W/m² | - |
| 1777556021 | 15.56° C | 94% | 1014.2 hPa | 0 mm | - | 80 W/m² | - |
| 1777555715 | 15.56° C | 94% | 1014.3 hPa | 0 mm | - | 67 W/m² | - |
| 1777555412 | 15.56° C | 94% | 1014.2 hPa | 0 mm | - | 73 W/m² | - |
| 1777555108 | 15.56° C | 94% | 1014.3 hPa | 0 mm | - | 79 W/m² | - |
| 1777554807 | 15.56° C | 95% | 1014.3 hPa | 0 mm | - | 85 W/m² | - |
* Rain latest hour (hover to see other rain measurements)
** Current wind speed in m/s (hover to see current wind gust speed)